Data supplied by UK-AIR on 30/3/2010
All Data GMT hour ending 
Status: R =Ratified P=Provisional,P*=As supplied
,,London Harrow Stanmore,,,,,,,,,,,,,,,,,,,,,,,
Date,time,"Non-volatile PM2.5 (Hourly measured)",status,unit,"PM2.5 particulate matter (Hourly measured)",status,unit,"Volatile PM2.5 (Hourly measured)",status,unit
 
01-01-2009,01:00,24,R,ugm-3 (TEOM FDMS),32,R,ugm-3 (TEOM FDMS),8,R,ugm-3 (TEOM FDMS)
01-01-2009,02:00,25,R,ugm-3 (TEOM FDMS),33,R,ugm-3 (TEOM FDMS),8,R,ugm-3 (TEOM FDMS)
01-01-2009,03:00,28,R,ugm-3 (TEOM FDMS),34,R,ugm-3 (TEOM FDMS),6,R,ugm-3 (TEOM FDMS)
01-01-2009,04:00,24,R,ugm-3 (TEOM FDMS),30,R,ugm-3 (TEOM FDMS),6,R,ugm-3 (TEOM FDMS)
01-01-2009,05:00,22,R,ugm-3 (TEOM FDMS),29,R,ugm-3 (TEOM FDMS),7,R,ugm-3 (TEOM FDMS)
01-01-2009,06:00,21,R,ugm-3 (TEOM FDMS),29,R,ugm-3 (TEOM FDMS),8,R,ugm-3 (TEOM FDMS)
01-01-2009,07:00,22,R,ugm-3 (TEOM FDMS),27,R,ugm-3 (TEOM FDMS),5,R,ugm-3 (TEOM FDMS)
01-01-2009,08:00,24,R,ugm-3 (TEOM FDMS),30,R,ugm-3 (TEOM FDMS),6,R,ugm-3 (TEOM FDMS)
01-01-2009,09:00,22,R,ugm-3 (TEOM FDMS),29,R,ugm-3 (TEOM FDMS),7,R,ugm-3 (TEOM FDMS)
01-01-2009,10:00,21,R,ugm-3 (TEOM FDMS),26,R,ugm-3 (TEOM FDMS),5,R,ugm-3 (TEOM FDMS)
01-01-2009,11:00,22,R,ugm-3 (TEOM FDMS),29,R,ugm-3 (TEOM FDMS),7,R,ugm-3 (TEOM FDMS)
01-01-2009,12:00,22,R,ugm-3 (TEOM FDMS),31,R,ugm-3 (TEOM FDMS),9,R,ugm-3 (TEOM FDMS)
01-01-2009,13:00,18,R,ugm-3 (TEOM FDMS),26,R,ugm-3 (TEOM FDMS),8,R,ugm-3 (TEOM FDMS)
01-01-2009,14:00,14,R,ugm-3 (TEOM FDMS),21,R,ugm-3 (TEOM FDMS),7,R,ugm-3 (TEOM FDMS)
01-01-2009,15:00,23,R,ugm-3 (TEOM FDMS),29,R,ugm-3 (TEOM FDMS),6,R,ugm-3 (TEOM FDMS)
01-01-2009,16:00,24,R,ugm-3 (TEOM FDMS),30,R,ugm-3 (TEOM FDMS),6,R,ugm-3 (TEOM FDMS)
01-01-2009,17:00,26,R,ugm-3 (TEOM FDMS),34,R,ugm-3 (TEOM FDMS),8,R,ugm-3 (TEOM FDMS)
01-01-2009,18:00,31,R,ugm-3 (TEOM FDMS),38,R,ugm-3 (TEOM FDMS),7,R,ugm-3 (TEOM FDMS)
01-01-2009,19:00,34,R,ugm-3 (TEOM FDMS),43,R,ugm-3 (TEOM FDMS),9,R,ugm-3 (TEOM FDMS)
01-01-2009,20:00,38,R,ugm-3 (TEOM FDMS),45,R,ugm-3 (TEOM FDMS),7,R,ugm-3 (TEOM FDMS)
01-01-2009,21:00,45,R,ugm-3 (TEOM FDMS),53,R,ugm-3 (TEOM FDMS),8,R,ugm-3 (TEOM FDMS)
01-01-2009,22:00,46,R,ugm-3 (TEOM FDMS),55,R,ugm-3 (TEOM FDMS),9,R,ugm-3 (TEOM FDMS)
01-01-2009,23:00,44,R,ugm-3 (TEOM FDMS),53,R,ugm-3 (TEOM FDMS),9,R,ugm-3 (TEOM FDMS)
01-01-2009,24:00,40,R,ugm-3 (TEOM FDMS),51,R,ugm-3 (TEOM FDMS),11,R,ugm-3 (TEOM FDMS)
02-01-2009,01:00,36,R,ugm-3 (TEOM FDMS),46,R,ugm-3 (TEOM FDMS),10,R,ugm-3 (TEOM FDMS)
02-01-2009,02:00,37,R,ugm-3 (TEOM FDMS),48,R,ugm-3 (TEOM FDMS),11,R,ugm-3 (TEOM FDMS)
02-01-2009,03:00,38,R,ugm-3 (TEOM FDMS),48,R,ugm-3 (TEOM FDMS),10,R,ugm-3 (TEOM FDMS)
02-01-2009,04:00,33,R,ugm-3 (TEOM FDMS),43,R,ugm-3 (TEOM FDMS),10,R,ugm-3 (TEOM FDMS)
02-01-2009,05:00,35,R,ugm-3 (TEOM FDMS),45,R,ugm-3 (TEOM FDMS),10,R,ugm-3 (TEOM FDMS)
02-01-2009,06:00,36,R,ugm-3 (TEOM FDMS),46,R,ugm-3 (TEOM FDMS),10,R,ugm-3 (TEOM FDMS)
02-01-2009,07:00,38,R,ugm-3 (TEOM FDMS),48,R,ugm-3 (TEOM FDMS),10,R,ugm-3 (TEOM FDMS)
02-01-2009,08:00,34,R,ugm-3 (TEOM FDMS),43,R,ugm-3 (TEOM FDMS),9,R,ugm-3 (TEOM FDMS)
02-01-2009,09:00,26,R,ugm-3 (TEOM FDMS),36,R,ugm-3 (TEOM FDMS),10,R,ugm-3 (TEOM FDMS)
02-01-2009,10:00,19,R,ugm-3 (TEOM FDMS),29,R,ugm-3 (TEOM FDMS),10,R,ugm-3 (TEOM FDMS)
02-01-2009,11:00,11,R,ugm-3 (TEOM FDMS),19,R,ugm-3 (TEOM FDMS),8,R,ugm-3 (TEOM FDMS)
02-01-2009,12:00,2,R,ugm-3 (TEOM FDMS),12,R,ugm-3 (TEOM FDMS),10,R,ugm-3 (TEOM FDMS)
02-01-2009,13:00,0,R,ugm-3 (TEOM FDMS),7,R,ugm-3 (TEOM FDMS),7,R,ugm-3 (TEOM FDMS)
02-01-2009,14:00,2,R,ugm-3 (TEOM FDMS),9,R,ugm-3 (TEOM FDMS),7,R,ugm-3 (TEOM FDMS)
02-01-2009,15:00,2,R,ugm-3 (TEOM FDMS),8,R,ugm-3 (TEOM FDMS),6,R,ugm-3 (TEOM FDMS)
02-01-2009,16:00,3,R,ugm-3 (TEOM FDMS),8,R,ugm-3 (TEOM FDMS),5,R,ugm-3 (TEOM FDMS)
02-01-2009,17:00,5,R,ugm-3 (TEOM FDMS),9,R,ugm-3 (TEOM FDMS),4,R,ugm-3 (TEOM FDMS)
02-01-2009,18:00,6,R,ugm-3 (TEOM FDMS),11,R,ugm-3 (TEOM FDMS),5,R,ugm-3 (TEOM FDMS)
02-01-2009,19:00,7,R,ugm-3 (TEOM FDMS),11,R,ugm-3 (TEOM FDMS),4,R,ugm-3 (TEOM FDMS)
02-01-2009,20:00,7,R,ugm-3 (TEOM FDMS),12,R,ugm-3 (TEOM FDMS),5,R,ugm-3 (TEOM FDMS)
02-01-2009,21:00,7,R,ugm-3 (TEOM FDMS),13,R,ugm-3 (TEOM FDMS),6,R,ugm-3 (TEOM FDMS)
02-01-2009,22:00,5,R,ugm-3 (TEOM FDMS),10,R,ugm-3 (TEOM FDMS),5,R,ugm-3 (TEOM FDMS)
02-01-2009,23:00,6,R,ugm-3 (TEOM FDMS),10,R,ugm-3 (TEOM FDMS),4,R,ugm-3 (TEOM FDMS)
02-01-2009,24:00,6,R,ugm-3 (TEOM FDMS),7,R,ugm-3 (TEOM FDMS),1,R,ugm-3 (TEOM FDMS)
03-01-2009,01:00,5,R,ugm-3 (TEOM FDMS),10,R,ugm-3 (TEOM FDMS),5,R,ugm-3 (TEOM FDMS)
03-01-2009,02:00,6,R,ugm-3 (TEOM FDMS),10,R,ugm-3 (TEOM FDMS),4,R,ugm-3 (TEOM FDMS)
03-01-2009,03:00,7,R,ugm-3 (TEOM FDMS),10,R,ugm-3 (TEOM FDMS),3,R,ugm-3 (TEOM FDMS)
03-01-2009,04:00,7,R,ugm-3 (TEOM FDMS),11,R,ugm-3 (TEOM FDMS),4,R,ugm-3 (TEOM FDMS)
03-01-2009,05:00,5,R,ugm-3 (TEOM FDMS),8,R,ugm-3 (TEOM FDMS),3,R,ugm-3 (TEOM FDMS)
03-01-2009,06:00,6,R,ugm-3 (TEOM FDMS),11,R,ugm-3 (TEOM FDMS),5,R,ugm-3 (TEOM FDMS)
03-01-2009,07:00,6,R,ugm-3 (TEOM FDMS),8,R,ugm-3 (TEOM FDMS),2,R,ugm-3 (TEOM FDMS)
03-01-2009,08:00,9,R,ugm-3 (TEOM FDMS),13,R,ugm-3 (TEOM FDMS),4,R,ugm-3 (TEOM FDMS)
03-01-2009,09:00,12,R,ugm-3 (TEOM FDMS),14,R,ugm-3 (TEOM FDMS),2,R,ugm-3 (TEOM FDMS)
03-01-2009,10:00,9,R,ugm-3 (TEOM FDMS),12,R,ugm-3 (TEOM FDMS),3,R,ugm-3 (TEOM FDMS)
03-01-2009,11:00,10,R,ugm-3 (TEOM FDMS),15,R,ugm-3 (TEOM FDMS),5,R,ugm-3 (TEOM FDMS)
03-01-2009,12:00,7,R,ugm-3 (TEOM FDMS),10,R,ugm-3 (TEOM FDMS),3,R,ugm-3 (TEOM FDMS)
03-01-2009,13:00,5,R,ugm-3 (TEOM FDMS),8,R,ugm-3 (TEOM FDMS),3,R,ugm-3 (TEOM FDMS)
03-01-2009,14:00,2,R,ugm-3 (TEOM FDMS),6,R,ugm-3 (TEOM FDMS),4,R,ugm-3 (TEOM FDMS)
03-01-2009,15:00,3,R,ugm-3 (TEOM FDMS),7,R,ugm-3 (TEOM FDMS),4,R,ugm-3 (TEOM FDMS)
03-01-2009,16:00,3,R,ugm-3 (TEOM FDMS),6,R,ugm-3 (TEOM FDMS),3,R,ugm-3 (TEOM FDMS)
03-01-2009,17:00,6,R,ugm-3 (TEOM FDMS),10,R,ugm-3 (TEOM FDMS),4,R,ugm-3 (TEOM FDMS)
03-01-2009,18:00,11,R,ugm-3 (TEOM FDMS),13,R,ugm-3 (TEOM FDMS),2,R,ugm-3 (TEOM FDMS)
03-01-2009,19:00,11,R,ugm-3 (TEOM FDMS),14,R,ugm-3 (TEOM FDMS),3,R,ugm-3 (TEOM FDMS)
03-01-2009,20:00,10,R,ugm-3 (TEOM FDMS),14,R,ugm-3 (TEOM FDMS),4,R,ugm-3 (TEOM FDMS)
03-01-2009,21:00,12,R,ugm-3 (TEOM FDMS),17,R,ugm-3 (TEOM FDMS),5,R,ugm-3 (TEOM FDMS)
03-01-2009,22:00,15,R,ugm-3 (TEOM FDMS),19,R,ugm-3 (TEOM FDMS),4,R,ugm-3 (TEOM FDMS)
03-01-2009,23:00,15,R,ugm-3 (TEOM FDMS),21,R,ugm-3 (TEOM FDMS),6,R,ugm-3 (TEOM FDMS)
03-01-2009,24:00,14,R,ugm-3 (TEOM FDMS),19,R,ugm-3 (TEOM FDMS),5,R,ugm-3 (TEOM FDMS)
04-01-2009,01:00,12,R,ugm-3 (TEOM FDMS),18,R,ugm-3 (TEOM FDMS),6,R,ugm-3 (TEOM FDMS)
04-01-2009,02:00,14,R,ugm-3 (TEOM FDMS),18,R,ugm-3 (TEOM FDMS),4,R,ugm-3 (TEOM FDMS)
04-01-2009,03:00,18,R,ugm-3 (TEOM FDMS),24,R,ugm-3 (TEOM FDMS),6,R,ugm-3 (TEOM FDMS)
04-01-2009,04:00,12,R,ugm-3 (TEOM FDMS),17,R,ugm-3 (TEOM FDMS),5,R,ugm-3 (TEOM FDMS)
04-01-2009,05:00,16,R,ugm-3 (TEOM FDMS),21,R,ugm-3 (TEOM FDMS),5,R,ugm-3 (TEOM FDMS)
04-01-2009,06:00,22,R,ugm-3 (TEOM FDMS),28,R,ugm-3 (TEOM FDMS),6,R,ugm-3 (TEOM FDMS)
04-01-2009,07:00,18,R,ugm-3 (TEOM FDMS),23,R,ugm-3 (TEOM FDMS),5,R,ugm-3 (TEOM FDMS)
04-01-2009,08:00,12,R,ugm-3 (TEOM FDMS),17,R,ugm-3 (TEOM FDMS),5,R,ugm-3 (TEOM FDMS)
04-01-2009,09:00,20,R,ugm-3 (TEOM FDMS),25,R,ugm-3 (TEOM FDMS),5,R,ugm-3 (TEOM FDMS)
04-01-2009,10:00,19,R,ugm-3 (TEOM FDMS),25,R,ugm-3 (TEOM FDMS),6,R,ugm-3 (TEOM FDMS)
04-01-2009,11:00,17,R,ugm-3 (TEOM FDMS),24,R,ugm-3 (TEOM FDMS),7,R,ugm-3 (TEOM FDMS)
04-01-2009,12:00,15,R,ugm-3 (TEOM FDMS),21,R,ugm-3 (TEOM FDMS),6,R,ugm-3 (TEOM FDMS)
04-01-2009,13:00,16,R,ugm-3 (TEOM FDMS),22,R,ugm-3 (TEOM FDMS),6,R,ugm-3 (TEOM FDMS)
04-01-2009,14:00,13,R,ugm-3 (TEOM FDMS),21,R,ugm-3 (TEOM FDMS),8,R,ugm-3 (TEOM FDMS)
04-01-2009,15:00,14,R,ugm-3 (TEOM FDMS),20,R,ugm-3 (TEOM FDMS),6,R,ugm-3 (TEOM FDMS)
04-01-2009,16:00,17,R,ugm-3 (TEOM FDMS),23,R,ugm-3 (TEOM FDMS),6,R,ugm-3 (TEOM FDMS)
04-01-2009,17:00,22,R,ugm-3 (TEOM FDMS),28,R,ugm-3 (TEOM FDMS),6,R,ugm-3 (TEOM FDMS)
04-01-2009,18:00,23,R,ugm-3 (TEOM FDMS),30,R,ugm-3 (TEOM FDMS),7,R,ugm-3 (TEOM FDMS)
04-01-2009,19:00,26,R,ugm-3 (TEOM FDMS),33,R,ugm-3 (TEOM FDMS),7,R,ugm-3 (TEOM FDMS)
04-01-2009,20:00,27,R,ugm-3 (TEOM FDMS),37,R,ugm-3 (TEOM FDMS),10,R,ugm-3 (TEOM FDMS)
04-01-2009,21:00,24,R,ugm-3 (TEOM FDMS),32,R,ugm-3 (TEOM FDMS),8,R,ugm-3 (TEOM FDMS)
04-01-2009,22:00,28,R,ugm-3 (TEOM FDMS),38,R,ugm-3 (TEOM FDMS),10,R,ugm-3 (TEOM FDMS)
04-01-2009,23:00,30,R,ugm-3 (TEOM FDMS),38,R,ugm-3 (TEOM FDMS),8,R,ugm-3 (TEOM FDMS)
04-01-2009,24:00,28,R,ugm-3 (TEOM FDMS),37,R,ugm-3 (TEOM FDMS),9,R,ugm-3 (TEOM FDMS)
05-01-2009,01:00,26,R,ugm-3 (TEOM FDMS),35,R,ugm-3 (TEOM FDMS),9,R,ugm-3 (TEOM FDMS)
05-01-2009,02:00,25,R,ugm-3 (TEOM FDMS),32,R,ugm-3 (TEOM FDMS),7,R,ugm-3 (TEOM FDMS)
05-01-2009,03:00,23,R,ugm-3 (TEOM FDMS),33,R,ugm-3 (TEOM FDMS),10,R,ugm-3 (TEOM FDMS)
05-01-2009,04:00,24,R,ugm-3 (TEOM FDMS),33,R,ugm-3 (TEOM FDMS),9,R,ugm-3 (TEOM FDMS)
05-01-2009,05:00,19,R,ugm-3 (TEOM FDMS),27,R,ugm-3 (TEOM FDMS),8,R,ugm-3 (TEOM FDMS)
05-01-2009,06:00,11,R,ugm-3 (TEOM FDMS),21,R,ugm-3 (TEOM FDMS),10,R,ugm-3 (TEOM FDMS)
05-01-2009,07:00,7,R,ugm-3 (TEOM FDMS),12,R,ugm-3 (TEOM FDMS),5,R,ugm-3 (TEOM FDMS)
05-01-2009,08:00,4,R,ugm-3 (TEOM FDMS),8,R,ugm-3 (TEOM FDMS),4,R,ugm-3 (TEOM FDMS)
05-01-2009,09:00,3,R,ugm-3 (TEOM FDMS),6,R,ugm-3 (TEOM FDMS),3,R,ugm-3 (TEOM FDMS)
05-01-2009,10:00,6,R,ugm-3 (TEOM FDMS),9,R,ugm-3 (TEOM FDMS),3,R,ugm-3 (TEOM FDMS)
05-01-2009,11:00,8,R,ugm-3 (TEOM FDMS),10,R,ugm-3 (TEOM FDMS),2,R,ugm-3 (TEOM FDMS)
05-01-2009,12:00,7,R,ugm-3 (TEOM FDMS),9,R,ugm-3 (TEOM FDMS),2,R,ugm-3 (TEOM FDMS)
05-01-2009,13:00,4,R,ugm-3 (TEOM FDMS),10,R,ugm-3 (TEOM FDMS),6,R,ugm-3 (TEOM FDMS)
05-01-2009,14:00,10,R,ugm-3 (TEOM FDMS),13,R,ugm-3 (TEOM FDMS),3,R,ugm-3 (TEOM FDMS)
05-01-2009,15:00,7,R,ugm-3 (TEOM FDMS),10,R,ugm-3 (TEOM FDMS),3,R,ugm-3 (TEOM FDMS)
05-01-2009,16:00,5,R,ugm-3 (TEOM FDMS),6,R,ugm-3 (TEOM FDMS),1,R,ugm-3 (TEOM FDMS)
05-01-2009,17:00,8,R,ugm-3 (TEOM FDMS),10,R,ugm-3 (TEOM FDMS),2,R,ugm-3 (TEOM FDMS)
05-01-2009,18:00,6,R,ugm-3 (TEOM FDMS),8,R,ugm-3 (TEOM FDMS),2,R,ugm-3 (TEOM FDMS)
05-01-2009,19:00,8,R,ugm-3 (TEOM FDMS),11,R,ugm-3 (TEOM FDMS),3,R,ugm-3 (TEOM FDMS)
05-01-2009,20:00,13,R,ugm-3 (TEOM FDMS),17,R,ugm-3 (TEOM FDMS),4,R,ugm-3 (TEOM FDMS)
05-01-2009,21:00,8,R,ugm-3 (TEOM FDMS),11,R,ugm-3 (TEOM FDMS),3,R,ugm-3 (TEOM FDMS)
05-01-2009,22:00,6,R,ugm-3 (TEOM FDMS),9,R,ugm-3 (TEOM FDMS),3,R,ugm-3 (TEOM FDMS)
05-01-2009,23:00,7,R,ugm-3 (TEOM FDMS),10,R,ugm-3 (TEOM FDMS),3,R,ugm-3 (TEOM FDMS)
05-01-2009,24:00,6,R,ugm-3 (TEOM FDMS),8,R,ugm-3 (TEOM FDMS),2,R,ugm-3 (TEOM FDMS)
06-01-2009,01:00,4,R,ugm-3 (TEOM FDMS),7,R,ugm-3 (TEOM FDMS),3,R,ugm-3 (TEOM FDMS)
06-01-2009,02:00,7,R,ugm-3 (TEOM FDMS),10,R,ugm-3 (TEOM FDMS),3,R,ugm-3 (TEOM FDMS)
06-01-2009,03:00,8,R,ugm-3 (TEOM FDMS),10,R,ugm-3 (TEOM FDMS),2,R,ugm-3 (TEOM FDMS)
06-01-2009,04:00,11,R,ugm-3 (TEOM FDMS),15,R,ugm-3 (TEOM FDMS),4,R,ugm-3 (TEOM FDMS)
06-01-2009,05:00,14,R,ugm-3 (TEOM FDMS),17,R,ugm-3 (TEOM FDMS),3,R,ugm-3 (TEOM FDMS)
06-01-2009,06:00,10,R,ugm-3 (TEOM FDMS),14,R,ugm-3 (TEOM FDMS),4,R,ugm-3 (TEOM FDMS)
06-01-2009,07:00,8,R,ugm-3 (TEOM FDMS),12,R,ugm-3 (TEOM FDMS),4,R,ugm-3 (TEOM FDMS)
06-01-2009,08:00,9,R,ugm-3 (TEOM FDMS),11,R,ugm-3 (TEOM FDMS),2,R,ugm-3 (TEOM FDMS)
06-01-2009,09:00,11,R,ugm-3 (TEOM FDMS),16,R,ugm-3 (TEOM FDMS),5,R,ugm-3 (TEOM FDMS)
06-01-2009,10:00,13,R,ugm-3 (TEOM FDMS),15,R,ugm-3 (TEOM FDMS),2,R,ugm-3 (TEOM FDMS)
06-01-2009,11:00,13,R,ugm-3 (TEOM FDMS),16,R,ugm-3 (TEOM FDMS),3,R,ugm-3 (TEOM FDMS)
06-01-2009,12:00,9,R,ugm-3 (TEOM FDMS),13,R,ugm-3 (TEOM FDMS),4,R,ugm-3 (TEOM FDMS)
06-01-2009,13:00,9,R,ugm-3 (TEOM FDMS),13,R,ugm-3 (TEOM FDMS),4,R,ugm-3 (TEOM FDMS)
06-01-2009,14:00,9,R,ugm-3 (TEOM FDMS),14,R,ugm-3 (TEOM FDMS),5,R,ugm-3 (TEOM FDMS)
06-01-2009,15:00,10,R,ugm-3 (TEOM FDMS),13,R,ugm-3 (TEOM FDMS),3,R,ugm-3 (TEOM FDMS)
06-01-2009,16:00,15,R,ugm-3 (TEOM FDMS),20,R,ugm-3 (TEOM FDMS),5,R,ugm-3 (TEOM FDMS)
06-01-2009,17:00,21,R,ugm-3 (TEOM FDMS),27,R,ugm-3 (TEOM FDMS),6,R,ugm-3 (TEOM FDMS)
06-01-2009,18:00,23,R,ugm-3 (TEOM FDMS),27,R,ugm-3 (TEOM FDMS),4,R,ugm-3 (TEOM FDMS)
06-01-2009,19:00,20,R,ugm-3 (TEOM FDMS),26,R,ugm-3 (TEOM FDMS),6,R,ugm-3 (TEOM FDMS)
06-01-2009,20:00,19,R,ugm-3 (TEOM FDMS),24,R,ugm-3 (TEOM FDMS),5,R,ugm-3 (TEOM FDMS)
06-01-2009,21:00,21,R,ugm-3 (TEOM FDMS),26,R,ugm-3 (TEOM FDMS),5,R,ugm-3 (TEOM FDMS)
06-01-2009,22:00,19,R,ugm-3 (TEOM FDMS),24,R,ugm-3 (TEOM FDMS),5,R,ugm-3 (TEOM FDMS)
06-01-2009,23:00,21,R,ugm-3 (TEOM FDMS),26,R,ugm-3 (TEOM FDMS),5,R,ugm-3 (TEOM FDMS)
06-01-2009,24:00,18,R,ugm-3 (TEOM FDMS),23,R,ugm-3 (TEOM FDMS),5,R,ugm-3 (TEOM FDMS)
07-01-2009,01:00,24,R,ugm-3 (TEOM FDMS),31,R,ugm-3 (TEOM FDMS),7,R,ugm-3 (TEOM FDMS)
07-01-2009,02:00,25,R,ugm-3 (TEOM FDMS),31,R,ugm-3 (TEOM FDMS),6,R,ugm-3 (TEOM FDMS)
07-01-2009,03:00,18,R,ugm-3 (TEOM FDMS),24,R,ugm-3 (TEOM FDMS),6,R,ugm-3 (TEOM FDMS)
07-01-2009,04:00,23,R,ugm-3 (TEOM FDMS),27,R,ugm-3 (TEOM FDMS),4,R,ugm-3 (TEOM FDMS)
07-01-2009,05:00,20,R,ugm-3 (TEOM FDMS),25,R,ugm-3 (TEOM FDMS),5,R,ugm-3 (TEOM FDMS)
07-01-2009,06:00,16,R,ugm-3 (TEOM FDMS),19,R,ugm-3 (TEOM FDMS),3,R,ugm-3 (TEOM FDMS)
07-01-2009,07:00,19,R,ugm-3 (TEOM FDMS),28,R,ugm-3 (TEOM FDMS),9,R,ugm-3 (TEOM FDMS)
07-01-2009,08:00,18,R,ugm-3 (TEOM FDMS),24,R,ugm-3 (TEOM FDMS),6,R,ugm-3 (TEOM FDMS)
07-01-2009,09:00,20,R,ugm-3 (TEOM FDMS),25,R,ugm-3 (TEOM FDMS),5,R,ugm-3 (TEOM FDMS)
07-01-2009,10:00,21,R,ugm-3 (TEOM FDMS),25,R,ugm-3 (TEOM FDMS),4,R,ugm-3 (TEOM FDMS)
07-01-2009,11:00,19,R,ugm-3 (TEOM FDMS),26,R,ugm-3 (TEOM FDMS),7,R,ugm-3 (TEOM FDMS)
07-01-2009,12:00,22,R,ugm-3 (TEOM FDMS),29,R,ugm-3 (TEOM FDMS),7,R,ugm-3 (TEOM FDMS)
07-01-2009,13:00,19,R,ugm-3 (TEOM FDMS),25,R,ugm-3 (TEOM FDMS),6,R,ugm-3 (TEOM FDMS)
07-01-2009,14:00,21,R,ugm-3 (TEOM FDMS),27,R,ugm-3 (TEOM FDMS),6,R,ugm-3 (TEOM FDMS)
07-01-2009,15:00,22,R,ugm-3 (TEOM FDMS),29,R,ugm-3 (TEOM FDMS),7,R,ugm-3 (TEOM FDMS)
07-01-2009,16:00,26,R,ugm-3 (TEOM FDMS),32,R,ugm-3 (TEOM FDMS),6,R,ugm-3 (TEOM FDMS)
07-01-2009,17:00,23,R,ugm-3 (TEOM FDMS),30,R,ugm-3 (TEOM FDMS),7,R,ugm-3 (TEOM FDMS)
07-01-2009,18:00,26,R,ugm-3 (TEOM FDMS),35,R,ugm-3 (TEOM FDMS),9,R,ugm-3 (TEOM FDMS)
07-01-2009,19:00,31,R,ugm-3 (TEOM FDMS),38,R,ugm-3 (TEOM FDMS),7,R,ugm-3 (TEOM FDMS)
07-01-2009,20:00,31,R,ugm-3 (TEOM FDMS),38,R,ugm-3 (TEOM FDMS),7,R,ugm-3 (TEOM FDMS)
07-01-2009,21:00,29,R,ugm-3 (TEOM FDMS),38,R,ugm-3 (TEOM FDMS),9,R,ugm-3 (TEOM FDMS)
07-01-2009,22:00,,,,,,,,,
07-01-2009,23:00,30,R,ugm-3 (TEOM FDMS),38,R,ugm-3 (TEOM FDMS),8,R,ugm-3 (TEOM FDMS)
07-01-2009,24:00,29,R,ugm-3 (TEOM FDMS),40,R,ugm-3 (TEOM FDMS),11,R,ugm-3 (TEOM FDMS)
08-01-2009,01:00,29,R,ugm-3 (TEOM FDMS),36,R,ugm-3 (TEOM FDMS),7,R,ugm-3 (TEOM FDMS)
08-01-2009,02:00,27,R,ugm-3 (TEOM FDMS),36,R,ugm-3 (TEOM FDMS),9,R,ugm-3 (TEOM FDMS)
08-01-2009,03:00,28,R,ugm-3 (TEOM FDMS),36,R,ugm-3 (TEOM FDMS),8,R,ugm-3 (TEOM FDMS)
08-01-2009,04:00,28,R,ugm-3 (TEOM FDMS),36,R,ugm-3 (TEOM FDMS),8,R,ugm-3 (TEOM FDMS)
08-01-2009,05:00,26,R,ugm-3 (TEOM FDMS),35,R,ugm-3 (TEOM FDMS),9,R,ugm-3 (TEOM FDMS)
08-01-2009,06:00,27,R,ugm-3 (TEOM FDMS),36,R,ugm-3 (TEOM FDMS),9,R,ugm-3 (TEOM FDMS)
08-01-2009,07:00,29,R,ugm-3 (TEOM FDMS),38,R,ugm-3 (TEOM FDMS),9,R,ugm-3 (TEOM FDMS)
08-01-2009,08:00,29,R,ugm-3 (TEOM FDMS),38,R,ugm-3 (TEOM FDMS),9,R,ugm-3 (TEOM FDMS)
08-01-2009,09:00,35,R,ugm-3 (TEOM FDMS),44,R,ugm-3 (TEOM FDMS),9,R,ugm-3 (TEOM FDMS)
08-01-2009,10:00,36,R,ugm-3 (TEOM FDMS),45,R,ugm-3 (TEOM FDMS),9,R,ugm-3 (TEOM FDMS)
08-01-2009,11:00,36,R,ugm-3 (TEOM FDMS),48,R,ugm-3 (TEOM FDMS),12,R,ugm-3 (TEOM FDMS)
08-01-2009,12:00,41,R,ugm-3 (TEOM FDMS),53,R,ugm-3 (TEOM FDMS),12,R,ugm-3 (TEOM FDMS)
08-01-2009,13:00,44,R,ugm-3 (TEOM FDMS),56,R,ugm-3 (TEOM FDMS),12,R,ugm-3 (TEOM FDMS)
08-01-2009,14:00,38,R,ugm-3 (TEOM FDMS),50,R,ugm-3 (TEOM FDMS),12,R,ugm-3 (TEOM FDMS)
08-01-2009,15:00,30,R,ugm-3 (TEOM FDMS),41,R,ugm-3 (TEOM FDMS),11,R,ugm-3 (TEOM FDMS)
08-01-2009,16:00,21,R,ugm-3 (TEOM FDMS),32,R,ugm-3 (TEOM FDMS),11,R,ugm-3 (TEOM FDMS)
08-01-2009,17:00,34,R,ugm-3 (TEOM FDMS),44,R,ugm-3 (TEOM FDMS),10,R,ugm-3 (TEOM FDMS)
08-01-2009,18:00,43,R,ugm-3 (TEOM FDMS),54,R,ugm-3 (TEOM FDMS),11,R,ugm-3 (TEOM FDMS)
08-01-2009,19:00,48,R,ugm-3 (TEOM FDMS),60,R,ugm-3 (TEOM FDMS),12,R,ugm-3 (TEOM FDMS)
08-01-2009,20:00,35,R,ugm-3 (TEOM FDMS),49,R,ugm-3 (TEOM FDMS),14,R,ugm-3 (TEOM FDMS)
08-01-2009,21:00,31,R,ugm-3 (TEOM FDMS),42,R,ugm-3 (TEOM FDMS),11,R,ugm-3 (TEOM FDMS)
08-01-2009,22:00,28,R,ugm-3 (TEOM FDMS),39,R,ugm-3 (TEOM FDMS),11,R,ugm-3 (TEOM FDMS)
08-01-2009,23:00,18,R,ugm-3 (TEOM FDMS),26,R,ugm-3 (TEOM FDMS),8,R,ugm-3 (TEOM FDMS)
08-01-2009,24:00,13,R,ugm-3 (TEOM FDMS),19,R,ugm-3 (TEOM FDMS),6,R,ugm-3 (TEOM FDMS)
09-01-2009,01:00,12,R,ugm-3 (TEOM FDMS),17,R,ugm-3 (TEOM FDMS),5,R,ugm-3 (TEOM FDMS)
09-01-2009,02:00,11,R,ugm-3 (TEOM FDMS),17,R,ugm-3 (TEOM FDMS),6,R,ugm-3 (TEOM FDMS)
09-01-2009,03:00,11,R,ugm-3 (TEOM FDMS),17,R,ugm-3 (TEOM FDMS),6,R,ugm-3 (TEOM FDMS)
09-01-2009,04:00,11,R,ugm-3 (TEOM FDMS),15,R,ugm-3 (TEOM FDMS),4,R,ugm-3 (TEOM FDMS)
09-01-2009,05:00,10,R,ugm-3 (TEOM FDMS),13,R,ugm-3 (TEOM FDMS),3,R,ugm-3 (TEOM FDMS)
09-01-2009,06:00,12,R,ugm-3 (TEOM FDMS),17,R,ugm-3 (TEOM FDMS),5,R,ugm-3 (TEOM FDMS)
09-01-2009,07:00,12,R,ugm-3 (TEOM FDMS),14,R,ugm-3 (TEOM FDMS),2,R,ugm-3 (TEOM FDMS)
09-01-2009,08:00,16,R,ugm-3 (TEOM FDMS),21,R,ugm-3 (TEOM FDMS),5,R,ugm-3 (TEOM FDMS)
09-01-2009,09:00,16,R,ugm-3 (TEOM FDMS),20,R,ugm-3 (TEOM FDMS),4,R,ugm-3 (TEOM FDMS)
09-01-2009,10:00,25,R,ugm-3 (TEOM FDMS),31,R,ugm-3 (TEOM FDMS),6,R,ugm-3 (TEOM FDMS)
09-01-2009,11:00,18,R,ugm-3 (TEOM FDMS),22,R,ugm-3 (TEOM FDMS),4,R,ugm-3 (TEOM FDMS)
09-01-2009,12:00,21,R,ugm-3 (TEOM FDMS),27,R,ugm-3 (TEOM FDMS),6,R,ugm-3 (TEOM FDMS)
09-01-2009,13:00,19,R,ugm-3 (TEOM FDMS),25,R,ugm-3 (TEOM FDMS),6,R,ugm-3 (TEOM FDMS)
09-01-2009,14:00,22,R,ugm-3 (TEOM FDMS),30,R,ugm-3 (TEOM FDMS),8,R,ugm-3 (TEOM FDMS)
09-01-2009,15:00,27,R,ugm-3 (TEOM FDMS),33,R,ugm-3 (TEOM FDMS),6,R,ugm-3 (TEOM FDMS)
09-01-2009,16:00,31,R,ugm-3 (TEOM FDMS),39,R,ugm-3 (TEOM FDMS),8,R,ugm-3 (TEOM FDMS)
09-01-2009,17:00,31,R,ugm-3 (TEOM FDMS),38,R,ugm-3 (TEOM FDMS),7,R,ugm-3 (TEOM FDMS)
09-01-2009,18:00,34,R,ugm-3 (TEOM FDMS),42,R,ugm-3 (TEOM FDMS),8,R,ugm-3 (TEOM FDMS)
09-01-2009,19:00,35,R,ugm-3 (TEOM FDMS),43,R,ugm-3 (TEOM FDMS),8,R,ugm-3 (TEOM FDMS)
09-01-2009,20:00,39,R,ugm-3 (TEOM FDMS),49,R,ugm-3 (TEOM FDMS),10,R,ugm-3 (TEOM FDMS)
09-01-2009,21:00,40,R,ugm-3 (TEOM FDMS),48,R,ugm-3 (TEOM FDMS),8,R,ugm-3 (TEOM FDMS)
09-01-2009,22:00,42,R,ugm-3 (TEOM FDMS),51,R,ugm-3 (TEOM FDMS),9,R,ugm-3 (TEOM FDMS)
09-01-2009,23:00,44,R,ugm-3 (TEOM FDMS),53,R,ugm-3 (TEOM FDMS),9,R,ugm-3 (TEOM FDMS)
09-01-2009,24:00,43,R,ugm-3 (TEOM FDMS),54,R,ugm-3 (TEOM FDMS),11,R,ugm-3 (TEOM FDMS)
10-01-2009,01:00,43,R,ugm-3 (TEOM FDMS),51,R,ugm-3 (TEOM FDMS),8,R,ugm-3 (TEOM FDMS)
10-01-2009,02:00,47,R,ugm-3 (TEOM FDMS),56,R,ugm-3 (TEOM FDMS),9,R,ugm-3 (TEOM FDMS)
10-01-2009,03:00,47,R,ugm-3 (TEOM FDMS),54,R,ugm-3 (TEOM FDMS),7,R,ugm-3 (TEOM FDMS)
10-01-2009,04:00,42,R,ugm-3 (TEOM FDMS),51,R,ugm-3 (TEOM FDMS),9,R,ugm-3 (TEOM FDMS)
10-01-2009,05:00,38,R,ugm-3 (TEOM FDMS),46,R,ugm-3 (TEOM FDMS),8,R,ugm-3 (TEOM FDMS)
10-01-2009,06:00,37,R,ugm-3 (TEOM FDMS),46,R,ugm-3 (TEOM FDMS),9,R,ugm-3 (TEOM FDMS)
10-01-2009,07:00,43,R,ugm-3 (TEOM FDMS),52,R,ugm-3 (TEOM FDMS),9,R,ugm-3 (TEOM FDMS)
10-01-2009,08:00,45,R,ugm-3 (TEOM FDMS),54,R,ugm-3 (TEOM FDMS),9,R,ugm-3 (TEOM FDMS)
10-01-2009,09:00,43,R,ugm-3 (TEOM FDMS),51,R,ugm-3 (TEOM FDMS),8,R,ugm-3 (TEOM FDMS)
10-01-2009,10:00,44,R,ugm-3 (TEOM FDMS),55,R,ugm-3 (TEOM FDMS),11,R,ugm-3 (TEOM FDMS)
10-01-2009,11:00,42,R,ugm-3 (TEOM FDMS),54,R,ugm-3 (TEOM FDMS),12,R,ugm-3 (TEOM FDMS)
10-01-2009,12:00,40,R,ugm-3 (TEOM FDMS),53,R,ugm-3 (TEOM FDMS),13,R,ugm-3 (TEOM FDMS)
10-01-2009,13:00,40,R,ugm-3 (TEOM FDMS),54,R,ugm-3 (TEOM FDMS),14,R,ugm-3 (TEOM FDMS)
10-01-2009,14:00,40,R,ugm-3 (TEOM FDMS),48,R,ugm-3 (TEOM FDMS),8,R,ugm-3 (TEOM FDMS)
10-01-2009,15:00,33,R,ugm-3 (TEOM FDMS),46,R,ugm-3 (TEOM FDMS),13,R,ugm-3 (TEOM FDMS)
10-01-2009,16:00,26,R,ugm-3 (TEOM FDMS),32,R,ugm-3 (TEOM FDMS),6,R,ugm-3 (TEOM FDMS)
10-01-2009,17:00,31,R,ugm-3 (TEOM FDMS),43,R,ugm-3 (TEOM FDMS),12,R,ugm-3 (TEOM FDMS)
10-01-2009,18:00,37,R,ugm-3 (TEOM FDMS),47,R,ugm-3 (TEOM FDMS),10,R,ugm-3 (TEOM FDMS)
10-01-2009,19:00,37,R,ugm-3 (TEOM FDMS),46,R,ugm-3 (TEOM FDMS),9,R,ugm-3 (TEOM FDMS)
10-01-2009,20:00,46,R,ugm-3 (TEOM FDMS),55,R,ugm-3 (TEOM FDMS),9,R,ugm-3 (TEOM FDMS)
10-01-2009,21:00,48,R,ugm-3 (TEOM FDMS),59,R,ugm-3 (TEOM FDMS),11,R,ugm-3 (TEOM FDMS)
10-01-2009,22:00,53,R,ugm-3 (TEOM FDMS),64,R,ugm-3 (TEOM FDMS),11,R,ugm-3 (TEOM FDMS)
10-01-2009,23:00,46,R,ugm-3 (TEOM FDMS),58,R,ugm-3 (TEOM FDMS),12,R,ugm-3 (TEOM FDMS)
10-01-2009,24:00,37,R,ugm-3 (TEOM FDMS),47,R,ugm-3 (TEOM FDMS),10,R,ugm-3 (TEOM FDMS)
11-01-2009,01:00,29,R,ugm-3 (TEOM FDMS),40,R,ugm-3 (TEOM FDMS),11,R,ugm-3 (TEOM FDMS)
11-01-2009,02:00,31,R,ugm-3 (TEOM FDMS),44,R,ugm-3 (TEOM FDMS),13,R,ugm-3 (TEOM FDMS)
11-01-2009,03:00,31,R,ugm-3 (TEOM FDMS),45,R,ugm-3 (TEOM FDMS),14,R,ugm-3 (TEOM FDMS)
11-01-2009,04:00,31,R,ugm-3 (TEOM FDMS),43,R,ugm-3 (TEOM FDMS),12,R,ugm-3 (TEOM FDMS)
11-01-2009,05:00,28,R,ugm-3 (TEOM FDMS),39,R,ugm-3 (TEOM FDMS),11,R,ugm-3 (TEOM FDMS)
11-01-2009,06:00,15,R,ugm-3 (TEOM FDMS),24,R,ugm-3 (TEOM FDMS),9,R,ugm-3 (TEOM FDMS)
11-01-2009,07:00,18,R,ugm-3 (TEOM FDMS),28,R,ugm-3 (TEOM FDMS),10,R,ugm-3 (TEOM FDMS)
11-01-2009,08:00,20,R,ugm-3 (TEOM FDMS),26,R,ugm-3 (TEOM FDMS),6,R,ugm-3 (TEOM FDMS)
11-01-2009,09:00,16,R,ugm-3 (TEOM FDMS),23,R,ugm-3 (TEOM FDMS),7,R,ugm-3 (TEOM FDMS)
11-01-2009,10:00,15,R,ugm-3 (TEOM FDMS),22,R,ugm-3 (TEOM FDMS),7,R,ugm-3 (TEOM FDMS)
11-01-2009,11:00,15,R,ugm-3 (TEOM FDMS),23,R,ugm-3 (TEOM FDMS),8,R,ugm-3 (TEOM FDMS)
11-01-2009,12:00,18,R,ugm-3 (TEOM FDMS),26,R,ugm-3 (TEOM FDMS),8,R,ugm-3 (TEOM FDMS)
11-01-2009,13:00,15,R,ugm-3 (TEOM FDMS),24,R,ugm-3 (TEOM FDMS),9,R,ugm-3 (TEOM FDMS)
11-01-2009,14:00,12,R,ugm-3 (TEOM FDMS),20,R,ugm-3 (TEOM FDMS),8,R,ugm-3 (TEOM FDMS)
11-01-2009,15:00,13,R,ugm-3 (TEOM FDMS),19,R,ugm-3 (TEOM FDMS),6,R,ugm-3 (TEOM FDMS)
11-01-2009,16:00,22,R,ugm-3 (TEOM FDMS),28,R,ugm-3 (TEOM FDMS),6,R,ugm-3 (TEOM FDMS)
11-01-2009,17:00,29,R,ugm-3 (TEOM FDMS),33,R,ugm-3 (TEOM FDMS),4,R,ugm-3 (TEOM FDMS)
11-01-2009,18:00,27,R,ugm-3 (TEOM FDMS),36,R,ugm-3 (TEOM FDMS),9,R,ugm-3 (TEOM FDMS)
11-01-2009,19:00,22,R,ugm-3 (TEOM FDMS),29,R,ugm-3 (TEOM FDMS),7,R,ugm-3 (TEOM FDMS)
11-01-2009,20:00,22,R,ugm-3 (TEOM FDMS),28,R,ugm-3 (TEOM FDMS),6,R,ugm-3 (TEOM FDMS)
11-01-2009,21:00,20,R,ugm-3 (TEOM FDMS),28,R,ugm-3 (TEOM FDMS),8,R,ugm-3 (TEOM FDMS)
11-01-2009,22:00,13,R,ugm-3 (TEOM FDMS),21,R,ugm-3 (TEOM FDMS),8,R,ugm-3 (TEOM FDMS)
11-01-2009,23:00,10,R,ugm-3 (TEOM FDMS),16,R,ugm-3 (TEOM FDMS),6,R,ugm-3 (TEOM FDMS)
11-01-2009,24:00,8,R,ugm-3 (TEOM FDMS),14,R,ugm-3 (TEOM FDMS),6,R,ugm-3 (TEOM FDMS)
12-01-2009,01:00,7,R,ugm-3 (TEOM FDMS),13,R,ugm-3 (TEOM FDMS),6,R,ugm-3 (TEOM FDMS)
12-01-2009,02:00,7,R,ugm-3 (TEOM FDMS),14,R,ugm-3 (TEOM FDMS),7,R,ugm-3 (TEOM FDMS)
12-01-2009,03:00,7,R,ugm-3 (TEOM FDMS),12,R,ugm-3 (TEOM FDMS),5,R,ugm-3 (TEOM FDMS)
12-01-2009,04:00,10,R,ugm-3 (TEOM FDMS),16,R,ugm-3 (TEOM FDMS),6,R,ugm-3 (TEOM FDMS)
12-01-2009,05:00,9,R,ugm-3 (TEOM FDMS),14,R,ugm-3 (TEOM FDMS),5,R,ugm-3 (TEOM FDMS)
12-01-2009,06:00,11,R,ugm-3 (TEOM FDMS),17,R,ugm-3 (TEOM FDMS),6,R,ugm-3 (TEOM FDMS)
12-01-2009,07:00,10,R,ugm-3 (TEOM FDMS),14,R,ugm-3 (TEOM FDMS),4,R,ugm-3 (TEOM FDMS)
12-01-2009,08:00,9,R,ugm-3 (TEOM FDMS),15,R,ugm-3 (TEOM FDMS),6,R,ugm-3 (TEOM FDMS)
12-01-2009,09:00,9,R,ugm-3 (TEOM FDMS),12,R,ugm-3 (TEOM FDMS),3,R,ugm-3 (TEOM FDMS)
12-01-2009,10:00,10,R,ugm-3 (TEOM FDMS),13,R,ugm-3 (TEOM FDMS),3,R,ugm-3 (TEOM FDMS)
12-01-2009,11:00,5,R,ugm-3 (TEOM FDMS),11,R,ugm-3 (TEOM FDMS),6,R,ugm-3 (TEOM FDMS)
12-01-2009,12:00,3,R,ugm-3 (TEOM FDMS),7,R,ugm-3 (TEOM FDMS),4,R,ugm-3 (TEOM FDMS)
12-01-2009,13:00,3,R,ugm-3 (TEOM FDMS),8,R,ugm-3 (TEOM FDMS),5,R,ugm-3 (TEOM FDMS)
12-01-2009,14:00,2,R,ugm-3 (TEOM FDMS),7,R,ugm-3 (TEOM FDMS),5,R,ugm-3 (TEOM FDMS)
12-01-2009,15:00,5,R,ugm-3 (TEOM FDMS),9,R,ugm-3 (TEOM FDMS),4,R,ugm-3 (TEOM FDMS)